This is the latest recevied weather packets stored in our database for station/object N5JXS. If no packets are shown the sender has not sent any weather packets the latest 10 day(s).
| Time | Temp. | Humidity | Pressure | Rain* | Wind** | Luminosity | Snow |
|---|---|---|---|---|---|---|---|
| 1777827420 | 14.44° C | 24% | 1022.5 hPa | 0 mm | - | 414 W/m² | - |
| 1777827116 | 14.44° C | 24% | 1022.5 hPa | 0 mm | - | 331 W/m² | - |
| 1777826813 | 14.44° C | 25% | 1022.4 hPa | 0 mm | - | 301 W/m² | - |
| 1777826510 | 14.44° C | 27% | 1022.5 hPa | 0 mm | - | 330 W/m² | - |
| 1777826206 | 14.44° C | 26% | 1022.6 hPa | 0 mm | - | 323 W/m² | - |
| 1777825904 | 13.89° C | 26% | 1022.6 hPa | 0 mm | - | 234 W/m² | - |
| 1777825601 | 14.44° C | 26% | 1022.9 hPa | 0 mm | - | 233 W/m² | - |
| 1777825299 | 14.44° C | 26% | 1022.7 hPa | 0 mm | - | 330 W/m² | - |
| 1777824996 | 14.44° C | 25% | 1022.6 hPa | 0 mm | - | 257 W/m² | - |
| 1777824691 | 14.44° C | 26% | 1022.4 hPa | 0 mm | - | 245 W/m² | - |
| 1777824389 | 13.89° C | 26% | 1022.5 hPa | 0 mm | - | 243 W/m² | - |
| 1777824084 | 13.89° C | 26% | 1022.5 hPa | 0 mm | - | 223 W/m² | - |
| 1777823781 | 13.89° C | 28% | 1022.6 hPa | 0 mm | - | 219 W/m² | - |
| 1777823478 | 13.89° C | 28% | 1022.6 hPa | 0 mm | - | 216 W/m² | - |
| 1777823175 | 13.89° C | 27% | 1022.7 hPa | 0 mm | - | 219 W/m² | - |
| 1777822873 | 13.89° C | 28% | 1022.7 hPa | 0 mm | - | 212 W/m² | - |
| 1777822571 | 13.33° C | 29% | 1022.7 hPa | 0 mm | - | 203 W/m² | - |
| 1777822268 | 13.33° C | 31% | 1022.6 hPa | 0 mm | - | 200 W/m² | - |
| 1777821965 | 13.33° C | 29% | 1022.6 hPa | 0 mm | - | 192 W/m² | - |
| 1777821664 | 12.78° C | 30% | 1023 hPa | 0 mm | - | 188 W/m² | - |
| 1777821361 | 12.78° C | 29% | 1022.7 hPa | 0 mm | - | 175 W/m² | - |
| 1777821057 | 12.78° C | 30% | 1022.9 hPa | 0 mm | - | 167 W/m² | - |
| 1777820754 | 12.78° C | 30% | 1022.9 hPa | 0 mm | - | 164 W/m² | - |
| 1777820450 | 12.22° C | 31% | 1022.7 hPa | 0 mm | - | 160 W/m² | - |
| 1777820148 | 12.22° C | 32% | 1022.9 hPa | 0 mm | - | 149 W/m² | - |
* Rain latest hour (hover to see other rain measurements)
** Current wind speed in m/s (hover to see current wind gust speed)